Waarnemingen

Advertentie
Mijn weer
K14A, Nederland (6204): temperatuur & dauwpunt: 20.09.2018 17:00:00 - 26.09.2018 17:00:00 (CEST)K14A, Nederland (6204): windsnelheid & windstoten: 20.09.2018 17:00:00 - 26.09.2018 17:00:00 (CEST)K14A, Nederland (6204): windrichting: 20.09.2018 17:00:00 - 26.09.2018 17:00:00 (CEST)K14A, Nederland (6204): luchtdruk: 20.09.2018 17:00:00 - 26.09.2018 17:00:00 (CEST)K14A, Nederland (6204): zicht: 20.09.2018 17:00:00 - 26.09.2018 17:00:00 (CEST)
Datum & Tijd tt [°C] td [°C] ff [km/u] ff [kn] fx [km/u] fx [kn] dd ppp [hPa] vv [km]
26.09.2018 17:00:00 - - - - - - - - -
26.09.2018 16:00:00 16,7 11,0 46 25 47 25 WZW 1029,6 10
26.09.2018 15:00:00 16,1 11,1 52 28 50 27 WZW 1029,8 10
26.09.2018 14:00:00 15,8 10,5 52 28 50 27 WZW 1030,0 10
26.09.2018 13:00:00 15,3 9,8 57 31 58 31 WZW 1030,3 10
26.09.2018 12:00:00 15,4 10,1 59 32 58 31 WZW 1030,1 10
26.09.2018 11:00:00 15,2 9,7 59 32 61 33 WZW 1030,5 10
26.09.2018 10:00:00 15,2 5,5 61 33 61 33 ZW 1030,9 10
26.09.2018 09:00:00 15,1 6,9 59 32 61 33 ZW 1030,1 10
26.09.2018 08:00:00 14,9 8,7 61 33 61 33 ZW 1030,4 10
26.09.2018 07:00:00 15,0 7,8 61 33 61 33 ZW 1030,7 10
26.09.2018 06:00:00 15,0 8,8 57 31 58 31 ZW 1031,4 10
26.09.2018 05:00:00 15,0 8,1 55 30 54 29 WZW 1031,9 10
26.09.2018 04:00:00 15,3 9,1 54 29 50 27 WZW 1032,5 10
26.09.2018 03:00:00 15,5 8,8 48 26 50 27 ZW 1033,0 10
26.09.2018 02:00:00 15,5 9,1 46 25 50 27 ZW 1033,7 10
26.09.2018 01:00:00 15,1 8,4 42 23 47 25 ZW 1033,7 10
26.09.2018 00:00:00 15,0 7,9 46 25 47 25 ZZW 1034,5 10
25.09.2018 23:00:00 14,9 8,2 41 22 43 23 ZZW 1035,1 10
25.09.2018 22:00:00 14,7 6,9 41 22 43 23 ZZW 1035,4 10
25.09.2018 21:00:00 14,8 7,4 41 22 40 21 ZZW 1035,3 10
25.09.2018 20:00:00 14,7 6,7 35 19 32 18 ZZW 1036,1 10
25.09.2018 19:00:00 14,7 6,4 31 17 32 18 ZZW 1036,6 10
25.09.2018 18:00:00 14,6 6,9 26 14 29 16 ZW 1036,9 10
25.09.2018 17:00:00 14,3 6,8 26 14 29 16 ZW 1037,3 10
25.09.2018 16:00:00 14,5 6,9 28 15 29 16 ZW 1037,5 10
25.09.2018 15:00:00 14,6 5,4 21 11 22 12 ZW 1037,9 10
25.09.2018 14:00:00 14,4 5,7 18 10 22 12 ZW 1038,8 10
25.09.2018 13:00:00 14,0 6,6 15 8 22 12 ZZW 1039,5 10
25.09.2018 12:00:00 13,6 8,6 11 6 14 8 Z 1039,8 10
25.09.2018 11:00:00 13,7 8,0 5 3 11 6 Z 1039,1 10
25.09.2018 10:00:00 13,5 8,0 4 2 11 6 - 1038,8 10
25.09.2018 09:00:00 12,3 7,6 13 7 25 14 N 1038,4 10
25.09.2018 08:00:00 12,0 8,4 18 10 29 16 - 1038,3 10
25.09.2018 07:00:00 13,2 6,0 15 8 22 12 NW 1038,0 10
25.09.2018 06:00:00 13,1 5,4 21 11 25 14 NW 1038,3 10
25.09.2018 05:00:00 13,0 5,4 11 6 25 14 - 1038,4 10
25.09.2018 04:00:00 12,9 4,7 21 11 29 16 WNW 1038,5 10
25.09.2018 03:00:00 12,7 4,7 21 11 25 14 NW 1038,4 10
25.09.2018 02:00:00 12,7 5,2 18 10 29 16 - 1038,2 10
25.09.2018 01:00:00 12,7 5,1 21 11 25 14 NW 1038,2 10
25.09.2018 00:00:00 12,7 4,9 22 12 29 16 NW 1038,2 10
24.09.2018 23:00:00 12,7 3,8 28 15 32 18 NW 1037,9 10
24.09.2018 22:00:00 12,7 5,3 29 16 36 19 NW 1037,5 10
24.09.2018 21:00:00 12,8 6,5 29 16 36 19 WNW 1036,8 10
24.09.2018 20:00:00 12,7 6,1 34 18 36 19 WNW 1036,6 10
24.09.2018 19:00:00 12,8 6,6 37 20 40 21 WNW 1036,0 10
24.09.2018 18:00:00 12,6 5,7 31 17 43 23 WNW 1036,1 10
24.09.2018 17:00:00 12,8 5,9 34 18 43 23 WNW 1036,1 10
24.09.2018 16:00:00 12,8 5,3 35 19 40 21 WNW 1036,5 10
24.09.2018 15:00:00 12,7 4,2 37 20 43 23 WNW 1036,0 10
24.09.2018 14:00:00 12,4 4,6 34 18 43 23 WNW 1035,7 10
24.09.2018 13:00:00 12,6 5,7 37 20 47 25 WNW 1035,7 10
24.09.2018 12:00:00 12,4 4,4 35 19 43 23 WNW 1034,6 10
24.09.2018 11:00:00 12,6 4,5 39 21 47 25 WNW 1034,6 10
24.09.2018 10:00:00 12,5 3,8 42 23 47 25 NW 1033,4 10
24.09.2018 09:00:00 12,6 5,0 46 25 50 27 NW 1032,5 10
24.09.2018 08:00:00 12,8 5,5 48 26 58 31 NW 1031,9 10
24.09.2018 07:00:00 12,4 6,4 42 23 58 31 WNW 1031,3 10
24.09.2018 06:00:00 13,0 5,9 44 24 50 27 WNW 1031,3 10
24.09.2018 05:00:00 12,9 5,7 46 25 47 25 NW 1030,5 10
24.09.2018 04:00:00 13,0 5,2 46 25 47 25 NW 1029,7 10
24.09.2018 03:00:00 11,5 4,2 57 31 58 31 NW 1028,8 9
24.09.2018 02:00:00 12,9 4,6 46 25 50 27 NW 1028,2 10
24.09.2018 01:00:00 13,0 4,2 46 25 50 27 NNW 1027,3 10
24.09.2018 00:00:00 13,0 3,2 50 27 58 31 NNW 1026,5 10
23.09.2018 23:00:00 13,1 5,9 50 27 50 27 NNW 1025,4 10
23.09.2018 22:00:00 13,1 5,1 52 28 54 29 NNW 1024,2 10
23.09.2018 21:00:00 12,5 5,7 50 27 58 31 NNW 1022,3 10
23.09.2018 20:00:00 13,2 4,9 37 20 47 25 NNW 1021,0 10
23.09.2018 19:00:00 11,9 7,0 41 22 61 33 NNW 1019,5 10
23.09.2018 18:00:00 12,9 5,0 50 27 54 29 N 1017,7 10
23.09.2018 17:00:00 11,5 8,4 42 23 61 33 N 1016,8 6
23.09.2018 16:00:00 12,8 5,1 35 19 47 25 N 1015,3 10
23.09.2018 15:00:00 12,8 7,7 35 19 47 25 N 1014,3 10
23.09.2018 14:00:00 13,4 5,8 21 11 40 21 NNW 1014,2 10
23.09.2018 13:00:00 13,2 6,0 22 12 25 14 NNW 1014,1 10
23.09.2018 12:00:00 12,5 3,7 15 8 25 14 NW 1013,8 10
23.09.2018 11:00:00 11,7 8,1 8 4 25 14 N 1013,9 10
23.09.2018 10:00:00 12,1 8,7 22 12 25 14 N 1013,4 10
23.09.2018 09:00:00 13,5 6,7 11 6 18 10 N 1013,5 10
23.09.2018 08:00:00 13,5 6,7 16 9 22 12 N 1013,6 10
23.09.2018 07:00:00 13,3 6,7 15 8 18 10 N 1013,4 10
23.09.2018 06:00:00 13,6 6,6 13 7 18 10 N 1013,7 10
23.09.2018 05:00:00 13,6 5,9 9 5 14 8 N 1014,4 10
23.09.2018 04:00:00 13,5 5,7 13 7 14 8 N 1014,9 10
23.09.2018 03:00:00 13,5 5,9 9 5 14 8 N 1015,5 10
23.09.2018 02:00:00 13,4 5,6 11 6 18 10 NW 1015,8 10
23.09.2018 01:00:00 13,4 5,2 9 5 18 10 W 1016,0 10
23.09.2018 00:00:00 13,9 6,1 8 4 18 10 - 1016,4 10
22.09.2018 23:00:00 13,6 5,7 11 6 22 12 - 1016,5 10
22.09.2018 22:00:00 13,6 4,3 11 6 25 14 - 1016,7 10
22.09.2018 21:00:00 13,6 5,4 16 9 29 16 W 1017,0 10
22.09.2018 20:00:00 13,6 6,2 22 12 32 18 - 1017,0 10
22.09.2018 19:00:00 13,7 5,3 29 16 36 19 W 1016,8 10
22.09.2018 18:00:00 13,6 5,3 39 21 43 23 W 1016,8 10
22.09.2018 17:00:00 13,7 5,2 39 21 47 25 W 1017,4 10
22.09.2018 16:00:00 13,5 5,0 44 24 50 27 W 1017,7 10
22.09.2018 15:00:00 13,5 4,6 48 26 50 27 W 1017,9 10
22.09.2018 14:00:00 13,4 4,7 50 27 54 29 W 1018,2 10
22.09.2018 13:00:00 13,7 7,3 48 26 58 31 W 1018,0 10
22.09.2018 12:00:00 13,7 6,7 50 27 54 29 W 1017,9 10
22.09.2018 11:00:00 13,7 6,7 50 27 54 29 W 1017,3 10
22.09.2018 10:00:00 13,7 6,4 52 28 58 31 W 1017,3 10
22.09.2018 09:00:00 13,8 6,0 54 29 61 33 W 1017,2 10
22.09.2018 08:00:00 13,4 6,9 48 26 58 31 W 1016,7 9
22.09.2018 07:00:00 14,0 7,2 55 30 61 33 W 1016,5 10
22.09.2018 06:00:00 13,9 8,4 55 30 61 33 W 1016,2 10
22.09.2018 05:00:00 14,0 7,6 55 30 61 33 W 1016,1 10
22.09.2018 04:00:00 14,1 8,0 54 29 61 33 W 1015,9 10
22.09.2018 03:00:00 14,2 7,9 59 32 65 35 W 1015,3 10
22.09.2018 02:00:00 13,8 8,2 46 25 61 33 WNW 1014,7 10
22.09.2018 01:00:00 14,4 9,0 57 31 68 37 W 1013,9 10
22.09.2018 00:00:00 14,4 8,6 61 33 68 37 W 1012,9 10
21.09.2018 23:00:00 14,2 7,7 55 30 72 39 WNW 1011,7 10
21.09.2018 22:00:00 13,6 8,2 70 38 83 45 W 1010,6 10
21.09.2018 21:00:00 14,6 9,0 85 46 90 49 W 1009,0 10
21.09.2018 20:00:00 11,0 10,2 72 39 86 47 WZW 1008,5 9
21.09.2018 19:00:00 14,1 8,4 72 39 79 43 WZW 1007,7 10
21.09.2018 18:00:00 14,4 7,4 81 44 79 43 W 1007,3 10
21.09.2018 17:00:00 13,9 5,8 76 41 90 49 WZW 1007,6 10
21.09.2018 16:00:00 14,4 6,0 70 38 76 41 W 1006,6 10
21.09.2018 15:00:00 13,9 5,5 74 40 76 41 WZW 1006,5 10
21.09.2018 14:00:00 13,6 6,5 74 40 76 41 WZW 1005,7 10
21.09.2018 13:00:00 13,3 7,0 74 40 76 41 W 1004,8 10
21.09.2018 12:00:00 13,4 7,6 72 39 83 45 W 1003,3 10
21.09.2018 11:00:00 13,6 8,2 80 43 86 47 W 1001,9 10
21.09.2018 10:00:00 13,5 8,0 83 45 90 49 W 1001,7 10
21.09.2018 09:00:00 13,9 8,2 83 45 94 51 W 1000,0 10
21.09.2018 08:00:00 14,3 7,9 93 50 97 53 W 998,4 10
21.09.2018 07:00:00 16,3 11,2 72 39 101 54 ZW 995,0 6
21.09.2018 06:00:00 18,9 15,5 83 45 90 49 Z 992,8 10
21.09.2018 05:00:00 19,1 15,3 78 42 83 45 Z 994,5 10
21.09.2018 04:00:00 19,2 15,3 78 42 79 43 Z 996,4 10
21.09.2018 03:00:00 19,3 15,5 68 37 76 41 Z 998,0 10
21.09.2018 02:00:00 19,3 15,6 57 31 61 33 Z 999,8 10
21.09.2018 01:00:00 19,3 15,6 61 33 65 35 Z 1001,7 10
21.09.2018 00:00:00 19,3 15,9 57 31 65 35 Z 1002,9 10
20.09.2018 23:00:00 19,4 15,9 59 32 61 33 Z 1004,0 10
20.09.2018 22:00:00 19,4 15,8 67 36 72 39 ZZW 1005,4 10
20.09.2018 21:00:00 19,5 15,3 67 36 76 41 ZZW 1005,8 10
20.09.2018 20:00:00 18,7 15,7 65 35 68 37 Z 1006,8 10
20.09.2018 19:00:00 18,3 15,8 65 35 68 37 Z 1007,5 10
20.09.2018 18:00:00 18,4 15,9 57 31 65 35 Z 1008,8 10
20.09.2018 17:00:00 18,5 15,9 57 31 61 33 ZZW 1009,8 10

tt = temperatuur
td = dauwpunt
ff = windsnelheid
fx = windstoten
dd = windrichting
ppp = luchtdruk
vv = zicht

Weerstations in de omgeving